Contact Us - Flying Club related Information

Contact

Contact-image

Enquiries for all Trim Flying Club related items - Intro Flights, Membership, PPL, Vouchers, Birthdays

Address:
Trim Flying Club
Dunganny
Trim Co Meath
Ireland

As Trim Flying Club is a part time organisation, there may not always be someone on-site at the airfield.

We will deal with flying related queries only.

Attention: Do not contact us if you are a third party enquiring about search engine optimisation.

Mobile: MOBILE - 086 847 1620 Liam / 087 397 9047 Vincent

http://www.trimflyingclub.ie

Contact Form

Send an email. All fields with an * are required.

Other information

Other information:

Please us this Contact Form to enquire about Intro Flights, Club Membership, Learning to Fly and all Club related material at Trim Flying Club

Trim Flying Club goes to the Aran Islands

Learn to fly at Trim Flying Club

Rainfall Radar Now

Atlantic Charts Pressure - Today

Atlantic Charts Rainfall - Today

 
 

Atlantic Charts Pressure - Tomorrow

Sunrise Sunset

Click for Dublin, Ireland Forecast

Aviation WX Dublin EIDW

[source: ADDS]
METAR
EIDW 301900Z 25010KT 9999 FEW020 SCT030 BKN035 20/13 Q1014 NOSIG =
TAF
TAF EIDW 301700Z 3018/3118 25010KT 9999 FEW018 BKN030 TEMPO 3018/3020 26015KT PROB30 TEMPO 3104/3111 -RA BKN015 BECMG 3109/3112 22010KT TEMPO 3111/3117 5000 RA BKN015 PROB40 TEMPO 3111/3117 4000 SHRA BKN010 SCT020CB BECMG 3116/3118 25010KT =